Date String (YYYY-MM-DD hh:mm:ss) UTC,Instrument flags,Ambient pressure (hPa),Sample flow (lpm),Bypass flow (lpm),Sample temperature (°C),Ambient temperature (°C),ASC tube jacket temperature (°C),LED temperature (°C),Box temperature (°C),Sample RH (%),Span deviation,Mass concentration (μg/m³),Mass concentration (μg/m³),Mass concentration (μg/m³)
DateTimeUTC,F1_M11,P_M11,Q1_M11,Q2_M11,T1_M11,T2_M11,T3_M11,T4_M11,T5_M11,U1_M11,ZSPAN_M11,X0_M11,X2_M11,X1_M11
2022-03-21 18:00:00,,0825.3,4.99,0.00,20.8,20.1,00.0,30.0,22.4,19.5,0000.0,0007.11,0003.97,0003.40
2022-03-21 18:01:00,,0825.3,5.00,0.00,20.8,20.1,00.0,29.9,22.3,19.3,0000.0,0006.83,0003.91,0003.38
2022-03-21 18:02:00,,0825.3,4.99,0.00,20.8,20.1,00.0,29.9,22.3,19.1,0000.0,0006.78,0003.87,0003.36
2022-03-21 18:03:00,,0825.3,4.99,0.00,20.7,20.0,00.0,29.9,22.3,18.8,0000.0,0006.92,0003.88,0003.34
2022-03-21 18:04:00,,0825.2,5.01,0.00,20.7,20.0,00.0,29.9,22.3,18.5,0000.0,0006.74,0003.82,0003.33
2022-03-21 18:05:00,,0825.2,5.00,0.00,20.7,20.0,00.0,29.9,22.3,19.1,0000.0,0006.63,0003.79,0003.31
2022-03-21 18:06:00,,0825.3,5.00,0.00,20.7,20.0,00.0,29.8,22.3,19.2,0000.0,0006.39,0003.75,0003.29
2022-03-21 18:07:00,,0825.2,5.00,0.00,20.7,20.0,00.0,29.8,22.2,19.2,0000.0,0006.22,0003.72,0003.29
2022-03-21 18:08:00,,0825.2,5.00,0.00,20.7,20.2,00.0,29.8,22.3,18.9,0000.0,0006.20,0003.71,0003.28
2022-03-21 18:09:00,,0825.3,5.01,0.00,20.8,21.2,00.0,29.9,22.6,18.9,0000.0,0006.74,0003.68,0003.28
2022-03-21 18:10:00,,0825.3,4.99,0.00,21.0,22.4,00.0,29.9,23.0,18.9,0000.0,0007.06,0003.66,0003.26
2022-03-21 18:11:00,,0825.3,5.00,0.00,21.2,22.9,00.0,30.0,23.2,18.9,0000.0,0006.93,0003.68,0003.26
2022-03-21 18:12:00,,0825.3,5.00,0.00,21.2,22.5,00.0,30.0,23.2,18.5,0000.0,0006.95,0003.68,0003.27
2022-03-21 18:13:00,,0825.3,5.00,0.00,21.2,22.0,00.0,30.0,23.0,18.5,0000.0,0007.07,0003.72,0003.27
2022-03-21 18:14:00,,0825.3,4.99,0.00,21.2,21.6,00.0,30.0,22.9,18.2,0000.0,0007.06,0003.71,0003.27
2022-03-21 18:15:00,,0825.3,5.01,0.00,21.2,21.3,00.0,30.1,22.9,18.5,0000.0,0007.10,0003.72,0003.27
2022-03-21 18:16:00,,0825.3,4.98,0.00,21.1,21.0,00.0,30.1,22.8,18.6,0000.0,0007.35,0003.76,0003.27
2022-03-21 18:17:00,,0825.3,5.01,0.00,21.1,20.9,00.0,30.1,22.7,18.3,0000.0,0007.37,0003.76,0003.27
2022-03-21 18:18:00,,0825.3,5.01,0.00,21.1,20.7,00.0,30.1,22.7,18.6,0000.0,0007.76,0003.79,0003.28
2022-03-21 18:19:00,,0825.3,5.01,0.00,21.0,20.6,00.0,30.1,22.6,19.0,0000.0,0007.92,0003.77,0003.28
2022-03-21 18:20:00,,0825.3,5.00,0.00,21.0,20.6,00.0,30.1,22.6,19.3,0000.0,0007.63,0003.77,0003.28
2022-03-21 18:21:00,,0825.3,4.99,0.00,21.0,20.5,00.0,30.1,22.6,19.5,0000.0,0007.34,0003.80,0003.29
2022-03-21 18:22:00,,0825.3,5.02,0.00,21.0,20.4,00.0,30.1,22.6,19.4,0000.0,0007.41,0003.81,0003.29
2022-03-21 18:23:00,,0825.3,4.99,0.00,21.0,20.3,00.0,30.0,22.5,19.1,0000.0,0007.34,0003.77,0003.27
2022-03-21 18:24:00,,0825.3,5.00,0.00,20.9,20.2,00.0,30.0,22.5,18.9,0000.0,0007.06,0003.72,0003.26
2022-03-21 18:25:00,,0825.3,5.00,0.00,20.9,20.2,00.0,30.0,22.5,18.6,0000.0,0006.86,0003.69,0003.26
2022-03-21 18:26:00,,0825.3,5.00,0.00,20.9,20.2,00.0,30.0,22.4,18.2,0000.0,0006.86,0003.68,0003.25
2022-03-21 18:27:00,,0825.3,5.00,0.00,20.8,20.1,00.0,30.0,22.4,18.7,0000.0,0006.94,0003.66,0003.25
2022-03-21 18:28:00,,0825.3,5.00,0.00,20.8,20.0,00.0,30.0,22.4,18.8,0000.0,0007.26,0003.65,0003.25
2022-03-21 18:29:00,,0825.3,5.00,0.00,20.8,20.0,00.0,30.0,22.3,19.0,0000.0,0006.87,0003.63,0003.24
2022-03-21 18:30:00,,0825.3,5.01,0.00,20.8,20.0,00.0,29.9,22.3,19.0,0000.0,0006.66,0003.65,0003.23
2022-03-21 18:31:00,,0825.3,5.01,0.00,20.8,20.0,00.0,29.9,22.3,18.8,0000.0,0006.79,0003.67,0003.22
2022-03-21 18:32:00,,0825.3,4.99,0.00,20.7,19.9,00.0,29.9,22.3,18.6,0000.0,0006.86,0003.69,0003.21
2022-03-21 18:33:00,,0825.3,4.99,0.00,20.7,20.0,00.0,29.9,22.3,18.7,0000.0,0006.85,0003.67,0003.20
2022-03-21 18:34:00,,0825.3,5.02,0.00,20.8,21.0,00.0,29.9,22.5,18.5,0000.0,0007.09,0003.69,0003.20
2022-03-21 18:35:00,,0825.3,4.98,0.00,21.0,22.3,00.0,30.0,23.0,18.6,0000.0,0007.31,0003.72,0003.20
2022-03-21 18:36:00,,0825.3,5.00,0.00,21.2,23.0,00.0,30.0,23.2,19.0,0000.0,0007.24,0003.71,0003.19
2022-03-21 18:37:00,,0825.3,5.00,0.00,21.3,22.6,00.0,30.0,23.2,18.6,0000.0,0007.31,0003.73,0003.19
2022-03-21 18:38:00,,0825.3,5.00,0.00,21.3,22.2,00.0,30.1,23.1,18.3,0000.0,0007.03,0003.71,0003.19
2022-03-21 18:39:00,,0825.3,5.00,0.00,21.3,21.8,00.0,30.1,23.0,18.5,0000.0,0007.33,0003.75,0003.20
2022-03-21 18:40:00,,0825.3,5.01,0.00,21.2,21.4,00.0,30.1,22.9,18.6,0000.0,0007.28,0003.76,0003.20
2022-03-21 18:41:00,,0825.2,4.99,0.00,21.2,21.1,00.0,30.1,22.8,18.5,0000.0,0006.84,0003.72,0003.20
2022-03-21 18:42:00,,0825.3,5.00,0.00,21.2,20.9,00.0,30.1,22.8,18.8,0000.0,0007.09,0003.69,0003.20
2022-03-21 18:43:00,,0825.3,5.01,0.00,21.1,20.8,00.0,30.1,22.7,18.6,0000.0,0007.68,0003.63,0003.20
2022-03-21 18:44:00,,0825.2,4.99,0.00,21.1,20.6,00.0,30.1,22.7,19.0,0000.0,0007.67,0003.63,0003.22
2022-03-21 18:45:00,,0825.2,4.99,0.00,21.0,20.5,00.0,30.1,22.6,18.8,0000.0,0007.83,0003.63,0003.22
2022-03-21 18:46:00,,0825.2,5.00,0.00,21.0,20.3,00.0,30.1,22.6,19.3,0000.0,0007.93,0003.63,0003.23
2022-03-21 18:47:00,,0825.2,5.00,0.00,21.0,20.3,00.0,30.1,22.5,19.5,0000.0,0008.13,0003.64,0003.24
2022-03-21 18:48:00,,0825.2,5.01,0.00,21.0,20.3,00.0,30.1,22.6,20.2,0000.0,0008.23,0003.65,0003.25
2022-03-21 18:49:00,,0825.2,5.00,0.00,21.0,20.3,00.0,30.1,22.5,20.1,0000.0,0008.27,0003.65,0003.25
2022-03-21 18:50:00,,0825.2,5.00,0.00,20.9,20.3,00.0,30.1,22.5,20.4,0000.0,0007.92,0003.61,0003.24
2022-03-21 18:51:00,,0825.1,4.99,0.00,20.9,20.3,00.0,30.0,22.5,20.3,0000.0,0007.93,0003.62,0003.24
2022-03-21 18:52:00,,0825.2,4.99,0.00,20.9,20.3,00.0,30.0,22.5,20.2,0000.0,0008.07,0003.66,0003.25
2022-03-21 18:53:00,,0825.2,5.00,0.00,20.9,20.2,00.0,30.0,22.5,19.7,0000.0,0007.97,0003.69,0003.26
2022-03-21 18:54:00,,0825.2,4.99,0.00,20.9,20.2,00.0,30.0,22.5,19.1,0000.0,0007.20,0003.70,0003.26
2022-03-21 18:55:00,,0825.2,5.01,0.00,20.8,20.2,00.0,30.0,22.4,19.5,0000.0,0007.21,0003.70,0003.25
2022-03-21 18:56:00,,0825.1,5.01,0.00,20.8,20.2,00.0,30.0,22.4,19.4,0000.0,0007.03,0003.70,0003.25
2022-03-21 18:57:00,,0825.2,5.00,0.00,20.8,20.1,00.0,30.0,22.4,19.5,0000.0,0007.10,0003.72,0003.24
2022-03-21 18:58:00,,0825.2,5.01,0.00,20.8,20.1,00.0,29.9,22.3,19.3,0000.0,0006.94,0003.71,0003.24
2022-03-21 18:59:00,,0825.1,4.98,0.00,20.7,20.0,00.0,29.9,22.3,19.0,0000.0,0006.72,0003.69,0003.24
